Theta_e
332 332 334 336 337 341 341 343 344 346 346 347 347 348 348 349 349 349 349 349 349 349 349 349 349 350 349 350 350 350 350 350 350 350 350 349 349 350 350 349 349 349 349 349 349 349 349 349 348 348 348 346 345 345 345 345 344 345 346 347 347 347 347 348 348 349 349 349 350 351 352 353 355 357 355 354 355 354 354 355 355 355 354 353 356
329 331 334 336 336 338 339 341 342 343 344 345 346 347 347 347 348 348 349 348 348 349 349 349 349 349 350 349 349 350 350 350 350 350 350 350 349 349 349 349 349 349 350 349 349 348 348 348 349 348 347 346 345 344 345 345 345 345 346 347 347 347 348 347 348 349 349 349 349 350 349 351 353 355 357 356 355 355 355 354 354 355 351 353 355
329 330 333 334 334 335 337 338 340 341 342 342 343 344 344 345 346 346 347 347 348 348 348 348 348 348 348 348 348 348 349 349 350 349 349 349 349 348 348 348 348 349 349 349 349 349 348 348 348 348 347 347 347 345 346 346 346 346 347 347 347 348 348 348 348 349 349 349 349 348 348 348 353 355 356 357 356 356 356 354 354 353 354 353 355
328 328 332 335 333 333 335 336 337 338 339 340 340 341 342 343 344 344 345 345 346 346 346 346 346 347 347 347 347 347 348 348 348 349 349 349 348 347 347 348 348 348 348 349 349 349 348 348 348 348 347 347 347 347 346 346 347 347 347 347 348 347 348 349 349 349 350 349 348 347 342 338 347 356 357 356 356 355 354 354 353 354 355 355 355
326 328 331 333 333 332 333 334 335 336 337 338 339 339 340 341 341 342 342 343 344 344 344 344 345 345 346 346 347 347 347 347 347 348 347 348 347 346 346 347 347 347 347 348 348 348 348 348 348 347 347 346 347 347 348 347 347 347 348 347 348 348 348 349 349 349 350 348 347 346 337 332 347 352 355 355 356 354 354 354 354 355 355 356 356
325 327 330 331 331 331 332 333 334 335 335 336 337 338 338 338 339 340 340 341 342 343 343 343 343 343 344 345 345 345 345 344 343 343 344 345 345 346 345 345 346 346 346 347 346 348 347 348 347 348 347 346 346 346 346 346 347 347 347 348 348 348 348 348 348 349 349 346 345 349 344 341 344 350 356 354 353 355 355 355 355 355 355 355 355
325 326 328 329 330 329 330 332 333 334 334 335 335 336 335 336 336 337 338 339 339 339 340 340 341 341 341 341 341 341 340 339 339 340 340 340 342 343 344 344 345 345 346 346 346 347 347 347 347 348 347 346 346 346 346 346 346 346 347 347 348 348 348 349 348 348 346 345 345 343 338 339 343 349 352 351 353 354 354 352 352 353 354 354 355
324 325 326 327 328 328 329 330 331 333 333 333 333 333 333 334 334 335 335 335 335 336 336 337 337 337 337 338 337 337 336 336 336 336 337 338 339 340 341 341 341 342 343 345 346 346 345 346 347 347 347 346 346 346 346 346 346 346 346 347 347 347 348 348 348 346 345 346 347 345 343 341 341 344 349 348 351 354 354 354 353 353 353 354 353
320 321 323 325 326 325 327 328 330 330 331 331 331 331 331 331 332 333 333 332 331 332 333 334 334 334 334 334 334 334 333 333 333 333 334 335 336 337 337 336 336 337 338 341 343 344 345 345 346 346 346 346 345 345 345 346 346 346 346 346 347 347 347 347 347 343 345 345 345 343 345 344 344 343 345 343 345 349 350 350 351 350 351 353 350
318 321 323 324 324 324 326 326 327 328 329 329 328 328 328 328 329 330 330 329 328 328 329 330 330 330 330 331 331 330 330 330 330 330 331 332 333 333 333 333 333 333 335 337 339 341 342 341 341 342 342 342 342 342 344 345 345 345 345 346 346 346 346 346 344 342 345 344 345 345 346 348 344 346 346 345 343 348 349 347 348 349 351 351 349
315 318 320 320 322 322 324 326 326 326 326 327 327 327 326 326 327 328 328 327 326 326 326 327 327 328 328 327 328 327 327 327 327 328 329 329 330 330 330 330 330 331 331 333 335 337 338 339 338 337 337 336 334 335 339 340 342 344 344 344 345 345 345 345 342 344 343 343 343 344 345 346 346 345 353 350 349 350 349 346 346 349 350 352 352
312 316 318 318 318 320 322 323 324 325 325 325 326 326 325 325 325 326 326 325 325 324 324 324 325 325 325 325 326 325 325 324 324 325 326 327 327 328 327 328 328 328 328 329 331 333 334 335 334 334 333 332 330 331 332 334 337 339 340 341 341 340 340 338 342 343 342 342 341 343 343 344 344 345 351 349 350 350 350 349 351 351 352 352 353
310 311 315 317 317 316 319 321 321 323 323 324 324 324 324 323 323 323 323 323 322 322 321 321 321 322 322 323 323 322 322 322 322 322 323 324 324 324 324 324 325 325 325 326 327 328 330 331 330 330 329 329 328 327 327 328 330 331 333 334 334 334 331 331 340 341 341 341 341 342 344 345 346 348 349 349 350 350 350 350 351 351 351 351 352
307 308 311 313 313 312 315 317 319 320 321 321 322 321 321 321 321 321 322 321 321 320 319 320 320 320 321 321 321 321 321 320 320 320 321 321 322 322 321 321 322 322 322 322 323 323 325 326 326 326 325 325 324 324 324 324 326 327 327 327 326 326 326 328 335 340 341 341 342 343 342 343 343 347 346 347 348 348 349 349 349 351 352 352 352
308 309 308 309 311 311 310 313 315 317 318 319 320 320 320 320 319 320 320 320 319 319 318 318 317 317 318 318 318 318 318 318 319 319 319 319 320 320 320 320 320 320 320 320 320 321 322 322 322 322 322 321 321 321 321 320 321 322 323 323 323 322 322 319 327 336 338 340 340 341 342 342 342 347 345 346 347 348 349 349 349 350 351 351 352
308 308 307 307 308 309 309 309 311 313 314 315 316 317 317 318 317 317 317 317 318 317 317 316 315 315 315 315 315 316 316 316 317 317 317 318 318 319 319 320 320 320 320 321 320 321 321 321 321 321 320 320 320 320 319 318 318 319 319 320 320 319 319 319 320 328 334 337 338 340 341 341 342 345 344 345 347 347 347 348 348 349 350 350 350
308 307 307 307 308 306 306 307 308 309 309 311 312 313 314 314 315 314 314 315 315 315 314 313 313 312 313 312 312 312 312 313 314 314 314 314 315 315 317 318 318 319 318 318 320 320 320 320 319 319 319 319 319 318 318 318 317 318 318 319 318 318 318 317 319 324 329 335 338 338 339 340 340 346 344 345 345 345 345 345 347 348 349 349 350
307 306 305 306 306 306 305 306 308 307 308 308 308 310 311 312 312 312 312 311 311 312 312 311 310 310 309 309 308 309 309 310 310 311 311 311 311 312 313 315 315 317 317 317 317 318 317 318 317 318 318 317 317 317 316 316 317 317 316 317 316 316 316 315 318 326 332 334 336 339 338 336 338 343 344 344 345 345 345 345 345 346 347 348 348
305 304 304 304 304 305 305 307 307 307 308 308 306 306 307 309 309 309 309 309 308 308 308 308 308 307 307 306 306 306 306 307 307 307 308 307 307 308 310 312 313 314 314 315 315 316 316 316 316 316 316 316 316 316 316 316 315 315 315 314 314 314 312 314 322 329 334 335 336 336 337 336 341 342 343 344 345 344 344 344 345 345 345 346 347
304 304 303 304 304 304 305 305 306 306 307 307 306 304 303 304 305 306 306 306 306 306 306 304 304 305 304 304 305 308 309 306 306 306 305 306 304 305 307 309 311 311 311 313 312 313 313 314 314 315 315 315 315 314 315 314 313 313 313 313 313 312 313 314 322 325 325 327 330 333 334 338 340 341 343 343 343 343 342 342 344 344 345 346 346
303 303 304 304 305 305 304 304 305 305 306 306 306 305 304 303 303 302 302 303 304 303 304 304 308 307 307 306 306 306 307 305 304 304 308 305 304 304 306 308 309 309 309 311 311 312 312 313 313 313 313 314 312 313 315 312 312 312 313 313 311 311 314 315 317 317 318 320 325 328 332 336 337 339 341 342 341 341 342 343 344 344 344 344 345
301 302 302 302 303 304 305 304 305 305 305 306 306 305 304 305 306 306 305 304 303 306 305 305 308 307 307 305 304 304 305 303 303 304 305 304 306 304 305 307 308 307 307 309 309 310 310 311 311 312 312 312 311 310 310 313 313 314 313 311 313 312 311 312 312 311 312 313 319 324 331 333 334 336 338 340 339 340 340 340 341 343 344 344 344
300 301 302 301 302 303 304 303 304 304 304 305 306 305 305 305 304 303 303 305 305 304 305 304 306 306 305 304 303 304 305 303 302 303 304 306 305 305 305 305 305 306 306 308 307 308 309 309 309 309 310 309 308 309 307 309 308 308 308 310 308 309 310 310 311 311 312 313 314 321 327 330 331 332 337 338 338 338 338 340 340 341 343 344 345
300 301 301 302 302 302 303 304 304 304 303 303 305 303 304 304 304 305 304 304 304 304 304 305 304 305 305 303 302 304 304 303 306 304 307 303 305 307 307 306 304 305 304 305 305 306 307 307 307 307 307 308 306 306 305 306 306 307 307 306 307 307 308 309 309 309 310 314 314 319 323 326 328 330 333 334 336 337 338 340 341 340 341 343 344
301 302 302 300 302 302 303 303 303 304 305 303 304 303 304 303 304 304 305 304 304 304 304 304 304 305 304 303 303 303 304 303 303 303 303 303 303 302 302 302 302 303 304 302 302 303 303 304 304 304 304 304 304 305 305 305 305 306 306 306 306 308 308 308 308 308 309 310 312 317 319 320 321 323 325 327 328 329 330 336 338 338 339 340 341
302 301 301 301 301 302 303 303 303 303 304 303 303 303 303 303 303 303 303 304 304 303 304 304 303 303 303 303 303 303 303 302 303 302 302 301 301 300 301 301 301 301 301 300 301 301 300 301 301 302 302 304 305 305 305 305 305 305 305 306 306 307 307 307 307 308 308 309 310 314 316 317 317 318 319 321 322 323 325 327 330 337 339 339 340
301 301 301 300 300 301 302 302 302 302 303 304 303 300 302 304 303 303 304 303 303 303 302 302 302 302 303 302 302 301 301 301 301 301 301 301 300 300 300 300 300 300 299 299 300 300 299 299 299 300 300 301 302 303 304 305 304 304 305 305 306 306 306 306 307 307 308 308 309 312 314 315 314 315 316 318 320 322 324 324 326 328 332 338 339
301 301 301 300 300 300 301 301 301 302 302 302 301 301 302 303 303 300 303 302 302 302 302 302 302 301 301 301 301 301 300 300 300 299 300 300 300 300 300 299 299 299 299 299 298 298 298 298 299 299 299 300 300 301 301 302 303 304 304 304 304 305 305 305 305 306 307 307 308 310 312 314 314 313 314 316 319 320 321 323 325 326 328 332 339
301 300 301 299 300 300 301 300 301 300 300 300 300 301 301 302 301 301 302 301 302 302 302 302 302 300 301 301 300 300 299 299 299 299 299 299 299 299 298 298 299 298 298 297 298 297 297 297 298 298 298 298 299 299 300 300 301 302 302 303 304 304 304 305 305 305 306 306 306 307 311 312 312 312 313 315 318 319 322 322 324 325 325 327 331
301 301 300 300 300 299 299 299 300 300 300 299 300 301 301 301 301 302 301 299 301 301 301 301 300 300 299 300 299 299 299 298 298 298 298 298 298 299 298 298 297 298 297 297 296 296 296 297 297 298 298 298 298 298 299 299 300 301 301 302 302 303 303 303 304 305 305 305 305 305 308 311 312 312 312 313 316 317 320 321 323 324 324 325 326
301 300 300 300 300 299 299 298 300 301 301 299 300 300 300 300 301 301 301 301 301 300 301 300 300 299 299 299 299 299 299 299 298 297 297 297 298 297 297 297 296 296 296 296 296 296 296 297 297 297 297 297 297 298 298 298 299 299 300 300 301 302 302 303 303 304 304 305 305 305 307 308 310 312 312 312 313 315 317 319 321 323 324 324 324
300 300 300 300 299 299 298 298 299 299 300 299 300 300 299 300 300 300 300 301 300 300 300 300 299 299 299 299 299 298 298 298 298 298 297 297 296 296 297 296 296 296 296 295 295 296 296 297 297 298 297 297 297 297 298 298 298 298 299 300 300 300 300 301 302 303 303 304 305 305 306 307 308 310 311 311 312 313 315 316 317 319 321 323 324
301 301 301 300 299 298 298 298 299 300 299 298 299 299 299 299 299 300 300 300 300 300 299 299 299 299 299 299 298 297 298 297 297 297 297 296 296 296 296 296 296 296 295 295 296 296 296 296 296 297 296 296 296 297 298 297 296 297 297 298 298 299 300 300 301 301 302 303 303 303 304 305 306 307 308 311 311 311 312 313 314 316 318 320 323
300 301 300 299 299 299 299 299 299 299 299 298 298 298 299 299 299 299 299 299 299 299 299 299 298 298 298 298 298 297 297 297 296 296 296 296 296 296 295 295 296 295 295 295 294 294 294 295 295 295 296 295 295 296 295 295 296 296 296 297 297 297 298 298 299 300 301 301 303 303 303 304 304 305 306 308 309 310 310 311 312 314 315 317 319
301 300 300 300 299 299 299 297 298 299 298 298 298 298 298 298 298 298 298 299 298 298 298 298 297 298 297 297 297 296 296 296 296 295 295 295 295 294 295 294 295 295 293 294 294 294 294 294 294 294 294 294 294 295 295 294 295 295 296 296 296 296 297 296 298 299 299 301 301 303 303 303 304 304 305 304 304 306 310 311 310 311 312 313 315
300 300 300 300 298 298 299 298 298 298 298 298 298 298 297 298 298 298 298 299 298 298 297 298 298 297 296 297 296 296 295 295 295 295 294 294 294 294 294 294 294 294 294 293 294 293 293 294 294 294 292 293 293 293 294 294 294 294 295 295 296 296 296 296 297 298 299 300 300 301 302 303 303 303 304 303 303 304 306 309 309 310 311 312 313
300 300 299 299 298 298 297 298 296 298 297 297 298 297 297 297 297 296 298 297 297 297 297 297 297 296 296 296 296 295 295 295 294 294 293 294 294 294 294 294 294 293 293 293 292 293 293 293 293 294 293 292 292 292 293 293 292 293 294 294 295 295 296 296 297 297 299 299 300 300 301 302 303 303 303 303 304 304 304 307 310 311 311 310 311
300 300 300 298 297 298 297 297 297 298 297 297 297 296 296 297 296 296 296 296 297 297 296 296 296 295 295 295 295 294 294 294 294 294 293 293 293 293 293 293 293 293 292 292 292 292 293 293 292 293 292 292 291 291 290 291 292 292 293 293 294 295 296 296 297 298 297 298 299 300 301 301 302 302 302 303 303 303 303 305 307 308 308 309 312
299 299 299 298 298 297 296 297 296 296 296 296 296 296 296 296 296 296 295 296 296 295 295 295 295 295 295 295 294 294 293 294 293 293 292 292 292 292 292 293 293 292 291 291 291 292 292 293 292 291 292 292 291 291 291 291 292 292 292 292 293 294 295 296 297 297 297 298 298 300 302 301 301 302 302 303 303 303 304 304 304 304 304 307 309
298 298 298 298 297 297 296 296 296 295 296 295 296 295 294 294 294 294 294 294 294 294 294 294 295 294 294 294 294 294 294 293 293 292 292 292 292 292 292 292 292 292 291 290 290 291 291 291 290 290 290 290 291 291 292 291 290 290 290 292 294 295 295 296 296 297 297 298 299 299 299 301 301 301 302 303 303 303 303 304 303 304 304 306 309
297 297 297 297 296 296 296 295 296 295 295 294 294 294 293 293 294 293 293 293 293 294 294 294 294 294 294 294 294 293 293 293 292 292 291 291 291 291 291 291 292 291 290 290 291 291 291 290 290 290 289 289 289 291 291 291 289 289 291 291 291 292 293 294 294 295 296 297 298 299 300 300 301 301 301 302 302 302 303 303 303 303 304 305 306
295 295 296 296 296 296 296 295 295 294 294 294 294 294 294 294 294 293 293 294 293 292 292 293 293 294 293 293 293 293 293 292 292 292 291 291 290 290 290 290 291 291 290 290 290 290 290 290 290 289 290 288 288 290 290 290 288 286 285 286 288 292 293 293 293 294 296 298 299 300 300 300 300 300 300 299 300 301 302 302 303 303 304 305 306
295 295 296 296 296 295 295 295 294 294 294 294 294 294 295 296 295 294 294 293 294 294 294 294 293 293 293 293 293 293 292 292 292 291 291 290 290 290 290 290 290 290 289 289 289 289 290 290 290 288 287 289 288 290 290 291 286 287 287 286 285 284 289 291 296 298 297 296 295 294 294 294 295 297 297 298 299 300 301 302 303 304 305 305 305
294 293 294 294 294 295 295 295 294 294 294 294 295 295 296 295 295 294 294 294 292 292 292 292 292 292 292 292 292 292 292 291 291 291 290 290 290 289 289 289 289 290 289 288 288 288 289 289 289 289 288 285 287 287 290 290 288 286 282 284 283 284 282 287 287 290 292 291 291 292 294 294 296 298 297 296 297 297 298 300 301 302 302 302 302
293 292 293 293 294 294 295 295 294 294 294 294 295 295 294 293 292 292 292 291 290 290 291 290 291 292 291 292 292 292 292 291 291 290 290 289 290 289 289 289 289 289 289 288 288 288 288 289 289 288 287 286 285 286 288 289 288 289 286 283 282 282 282 283 285 285 289 290 292 293 293 293 293 293 295 295 297 298 299 299 300 300 301 302 302
292 292 293 293 293 294 294 294 294 294 294 294 294 294 292 291 290 289 288 288 288 289 288 289 290 290 290 292 292 292 291 290 290 290 289 289 289 289 289 288 288 288 289 288 288 288 288 288 288 288 287 287 286 285 285 288 288 289 289 288 286 282 281 284 284 280 287 288 288 290 292 293 294 293 294 294 295 296 296 296 297 297 298 300 300
292 293 293 293 293 294 294 294 294 293 294 294 294 293 292 291 290 290 290 290 289 291 292 292 292 292 292 291 290 291 291 290 290 290 289 289 289 288 288 288 288 288 288 287 287 287 287 288 288 288 287 287 286 284 284 285 287 287 288 289 288 288 287 284 281 282 280 285 288 288 289 291 292 293 293 293 294 294 295 295 296 297 297 298 299
292 292 292 292 292 293 293 294 293 293 294 293 293 292 291 291 291 291 291 291 291 291 291 290 291 290 290 289 289 290 290 290 289 289 289 288 288 288 288 288 287 287 287 287 286 287 287 288 288 288 287 286 286 284 284 285 283 284 287 286 286 287 288 287 286 283 282 280 282 288 289 290 291 292 292 292 292 292 293 294 294 295 296 297 298
291 291 291 291 292 292 293 293 292 293 293 293 292 292 292 291 291 291 290 291 291 291 291 290 289 289 288 289 289 288 289 289 289 288 288 288 287 287 287 287 286 286 286 286 286 287 286 286 286 286 286 286 286 286 285 284 284 283 284 284 285 285 286 286 286 286 282 281 280 282 284 288 289 289 290 291 291 292 292 293 293 294 294 294 296
291 292 291 291 291 292 292 292 291 292 292 291 292 291 291 291 290 290 290 289 290 290 290 289 289 289 288 288 288 288 288 288 288 288 288 287 287 287 286 286 286 286 286 286 286 286 286 286 286 286 286 285 285 285 284 284 284 284 284 284 283 283 283 283 284 284 284 284 280 281 283 283 282 285 288 288 289 290 291 291 292 293 293 294 295
291 291 291 291 291 291 291 290 291 291 291 291 290 290 290 290 290 290 290 290 290 289 288 288 288 288 287 287 287 288 288 287 287 287 287 287 286 286 286 285 285 285 285 285 285 285 285 285 285 285 285 284 284 284 284 284 284 284 284 283 282 282 281 281 281 282 282 281 281 281 282 283 282 282 285 287 288 289 290 291 291 292 292 292 293
Wind_Speed
5 7 4 9 12 10 11 11 12 12 12 12 13 13 13 13 12 10 9 9 8 9 9 8 8 9 9 10 10 11 10 9 8 8 8 8 7 6 5 4 4 5 5 5 6 6 6 7 7 7 7 6 5 6 7 8 8 9 10 11 12 12 12 12 11 10 9 9 9 11 12 12 12 10 11 9 9 9 5 8 6 7 6 7 10
6 5 5 7 9 11 10 11 11 12 12 12 13 13 13 13 13 12 12 11 11 11 12 11 11 12 12 12 12 12 12 11 11 10 10 10 10 8 7 5 5 4 5 5 5 6 6 6 7 7 6 6 5 5 7 7 8 7 7 9 10 11 11 12 12 11 10 8 8 8 10 11 12 11 9 9 9 9 6 3 5 6 6 7 7
5 4 4 7 11 10 10 11 11 11 11 12 11 12 12 12 13 13 12 13 13 13 13 13 12 12 12 13 13 13 12 13 13 12 12 12 12 11 9 7 6 6 5 5 5 6 7 6 6 6 6 7 6 6 6 7 7 8 8 8 8 9 11 11 12 11 11 10 9 9 9 10 11 10 9 8 8 8 6 4 4 6 7 10 6
5 4 3 9 13 10 9 10 11 10 10 11 11 10 10 12 13 12 12 12 13 13 13 13 12 13 13 14 14 13 13 14 14 14 13 14 14 13 12 10 9 8 8 7 6 6 7 7 6 4 5 5 5 4 5 6 7 8 8 9 9 9 10 11 11 11 11 10 11 10 6 6 6 8 7 7 7 8 6 4 5 6 10 12 11
4 4 3 4 8 10 10 11 10 11 11 10 11 11 11 12 12 12 12 12 12 12 13 13 12 12 13 14 15 14 15 16 17 17 16 15 14 13 13 12 11 10 9 7 8 7 7 7 8 7 5 3 3 6 6 4 4 6 8 8 9 9 10 10 11 11 11 10 11 11 7 7 5 1 5 6 6 6 4 3 4 6 8 10 11
4 4 4 4 6 9 11 10 9 10 11 11 11 12 12 13 13 13 12 13 13 13 14 13 13 13 13 15 16 16 17 17 16 16 16 16 15 15 14 13 13 11 10 10 9 9 9 9 9 9 7 6 5 5 5 6 5 5 5 7 8 9 9 10 10 11 11 11 13 7 7 5 5 1 5 3 6 5 3 3 3 6 7 10 10
5 4 4 5 6 9 10 10 10 11 11 11 11 12 13 13 13 13 13 13 13 13 13 14 13 14 14 15 15 15 15 15 15 15 15 15 15 15 15 14 14 14 13 12 12 11 11 10 10 10 9 8 9 8 9 9 8 7 6 7 8 8 8 8 9 10 11 10 6 7 5 6 5 4 1 2 3 6 8 7 6 7 9 9 10
5 3 3 6 7 8 9 10 10 11 11 11 12 12 12 13 13 13 13 14 14 14 14 13 14 14 14 14 14 15 14 15 15 15 15 15 15 15 16 15 15 15 15 15 15 14 14 13 12 12 11 11 13 12 11 11 10 10 9 8 8 8 8 8 8 8 11 8 7 6 5 6 6 4 4 2 2 3 5 7 8 8 9 11 8
5 3 4 6 7 9 9 9 10 11 11 11 12 12 12 12 13 13 13 13 14 14 14 14 14 14 14 14 14 14 14 14 15 14 14 14 14 14 15 14 14 14 14 14 15 16 16 16 17 16 15 15 15 14 12 12 11 11 11 10 9 9 9 8 8 8 8 6 7 8 7 7 7 6 6 6 3 4 5 5 6 6 7 7 6
5 5 6 6 7 8 9 9 10 10 11 11 12 12 12 12 13 13 13 13 13 14 14 14 14 14 14 14 14 14 14 14 14 14 14 13 13 14 14 14 14 14 14 14 14 15 15 16 16 16 16 17 16 17 17 16 14 12 11 12 11 11 9 9 8 8 6 7 7 8 7 6 7 6 9 10 7 5 6 3 4 5 6 8 9
5 5 5 6 8 9 10 10 10 10 11 11 12 12 12 12 12 13 13 13 13 14 14 14 14 14 14 13 13 14 14 14 14 14 13 13 13 13 13 14 14 14 14 14 14 14 14 14 14 15 15 15 15 15 16 16 16 15 15 15 14 13 12 9 9 6 6 8 8 7 8 7 6 7 4 6 4 6 6 6 5 6 8 10 11
5 5 5 6 8 11 10 10 10 10 10 11 12 12 12 12 13 12 13 13 13 13 14 13 13 13 13 14 14 13 13 13 13 13 13 13 14 14 14 14 14 14 14 15 15 14 14 14 15 14 15 15 15 15 15 14 15 15 15 15 15 16 16 15 9 7 7 8 8 7 8 8 9 10 11 11 7 7 7 7 7 10 10 10 12
5 4 5 5 7 9 10 10 9 10 10 11 11 12 12 12 12 12 12 13 13 13 13 13 13 13 13 13 13 13 13 13 13 13 13 13 13 13 13 13 14 14 14 14 14 14 14 15 15 15 14 14 14 14 14 14 13 13 13 14 14 14 14 15 7 9 8 8 7 8 8 7 7 7 6 9 9 10 10 11 11 11 11 12 12
5 5 5 5 6 8 9 9 9 10 10 11 11 11 11 11 11 12 12 12 12 12 13 13 13 13 13 13 14 14 14 14 13 13 13 13 13 13 13 13 13 13 13 13 13 13 13 13 13 13 13 13 13 13 12 12 12 12 12 12 12 13 14 10 10 9 9 9 8 8 8 7 8 4 6 8 11 12 12 12 12 11 11 12 13
5 5 5 6 6 5 8 9 9 10 10 10 11 11 11 11 11 12 12 12 12 12 12 12 13 13 13 13 13 13 13 13 14 14 13 13 13 13 13 12 12 12 12 12 12 12 12 13 13 12 12 12 12 12 12 11 11 10 10 10 10 11 11 7 7 8 9 9 8 8 8 7 8 4 6 9 11 12 13 13 13 12 12 12 12
6 5 5 5 5 5 5 7 9 9 10 10 11 10 11 11 11 11 11 11 11 11 11 11 12 12 13 13 13 13 13 14 14 14 14 14 14 14 14 14 13 13 13 13 12 12 12 12 12 12 13 12 12 12 11 11 11 10 10 9 9 9 9 6 6 7 8 9 9 8 8 8 8 6 6 8 9 11 12 13 13 13 13 13 13
4 4 5 5 4 4 5 5 6 9 10 11 10 10 10 11 11 11 11 10 10 10 11 11 11 12 12 12 13 13 13 13 14 14 15 15 14 15 15 14 14 13 13 13 13 12 12 12 12 11 11 12 12 13 13 12 10 11 11 10 10 9 9 8 6 8 8 8 8 8 8 8 9 1 6 9 10 12 13 13 14 13 14 13 13
4 4 5 5 4 4 5 5 5 4 6 8 9 10 10 10 11 11 10 10 10 10 10 10 10 10 10 10 10 10 11 11 11 12 13 14 14 14 15 15 15 15 15 15 14 13 13 12 12 11 11 11 11 12 12 11 10 10 11 11 12 12 10 11 7 8 9 7 8 8 8 9 10 4 7 10 12 13 14 14 14 14 14 14 14
4 5 5 5 5 4 5 4 4 4 3 4 5 6 9 10 10 10 9 9 9 9 9 9 9 9 8 7 6 7 8 9 8 9 9 11 12 11 13 13 13 14 14 14 14 14 15 14 14 13 13 12 12 12 12 10 8 9 10 10 12 11 14 10 8 7 7 7 7 8 8 8 3 5 8 11 13 15 15 16 16 15 15 15 15
5 5 6 5 5 5 5 4 4 3 3 4 5 6 7 9 9 9 8 8 8 7 7 7 7 6 5 2 1 4 5 7 6 6 8 8 11 9 10 11 11 12 13 12 12 12 13 14 13 14 14 14 15 14 12 8 8 9 9 10 11 13 8 6 6 7 7 7 7 8 8 8 9 9 10 13 14 15 16 17 18 17 16 16 16
5 7 6 6 6 6 6 5 4 5 4 4 5 5 3 5 7 7 7 7 7 6 4 3 2 4 4 2 3 5 5 5 6 6 6 6 7 9 10 10 11 11 12 12 10 11 12 12 12 13 13 13 13 15 11 7 10 9 9 8 11 7 5 5 6 6 7 7 8 7 10 6 8 9 10 12 14 16 17 16 18 19 19 18 17
8 8 8 8 8 7 7 6 5 5 5 4 3 3 3 2 3 3 3 3 4 2 3 4 4 4 3 3 4 5 4 5 6 7 5 6 6 7 9 11 11 11 13 12 10 10 12 11 11 12 13 11 13 6 6 6 8 7 8 11 7 4 5 6 6 7 7 7 8 8 8 8 10 13 13 14 16 17 17 17 18 19 20 20 18
10 9 8 10 8 7 7 7 6 6 6 5 3 3 3 3 4 3 3 2 2 3 2 3 4 4 4 4 4 4 4 4 5 4 4 6 3 3 7 8 9 9 13 12 10 10 13 11 11 12 12 9 6 5 6 5 6 9 8 6 5 5 6 7 6 6 6 6 7 10 10 10 12 14 14 14 16 17 18 18 18 18 19 19 19
11 9 8 8 8 7 8 7 7 7 6 5 4 4 4 4 3 3 3 2 2 1 2 3 3 4 3 4 4 4 3 4 2 1 4 4 5 5 5 6 9 8 11 8 9 9 12 10 10 11 8 6 6 6 6 6 6 6 6 6 5 6 6 6 6 6 6 6 6 10 10 12 14 14 15 16 17 18 19 19 19 18 19 20 20
9 9 8 9 10 8 8 7 7 7 6 5 5 4 4 4 3 3 2 2 2 2 2 2 3 3 3 3 3 3 3 4 5 5 5 5 5 6 6 6 6 6 9 7 6 7 7 6 6 7 6 6 7 6 6 6 6 7 7 7 7 7 6 6 6 6 6 7 7 9 9 11 13 15 17 18 19 19 20 20 21 21 20 21 20
9 10 10 9 10 9 9 7 7 7 6 5 5 4 4 4 4 3 3 2 2 1 1 1 2 2 2 2 1 2 3 3 4 5 5 5 5 5 5 6 6 6 7 6 7 7 7 6 7 7 6 6 6 6 7 6 6 6 6 7 7 7 7 6 6 7 7 7 7 10 10 11 15 17 19 20 21 21 21 20 21 21 22 22 21
10 10 10 9 10 10 10 8 8 7 7 5 4 5 5 4 4 4 3 3 3 2 2 2 2 2 1 2 2 3 3 3 4 4 4 4 4 5 5 5 6 6 6 6 7 7 7 7 7 7 7 7 7 7 7 7 7 8 7 7 7 7 7 7 7 7 7 7 8 11 11 10 14 17 18 19 20 21 21 21 21 21 22 22 23
10 11 10 10 10 12 11 10 8 8 7 6 6 5 5 4 3 4 3 3 2 2 3 2 2 2 2 3 2 2 2 3 3 3 3 3 4 4 4 4 5 5 6 6 6 6 7 6 7 7 8 7 8 8 7 8 7 7 7 8 8 8 7 7 8 8 8 8 8 10 11 11 11 15 18 20 21 21 22 22 22 22 22 23 23
12 13 10 11 12 11 12 11 9 9 7 7 6 5 5 4 4 4 3 4 2 3 3 3 2 2 3 2 3 2 2 2 3 3 3 4 4 4 4 4 5 5 5 6 6 6 6 6 6 7 7 7 7 7 8 8 7 7 7 8 8 8 8 8 8 8 8 8 8 9 12 11 14 17 18 19 20 21 21 22 22 22 23 23 23
13 13 12 11 11 12 13 12 11 9 8 8 6 5 5 5 4 4 4 4 3 3 3 2 2 2 2 3 3 2 2 3 3 3 3 4 4 4 4 4 4 4 5 5 6 6 6 6 6 6 6 7 7 7 7 7 8 8 8 8 8 8 8 8 8 8 8 8 8 9 12 12 12 16 18 20 21 21 21 22 22 21 22 23 24
13 15 12 11 11 12 12 12 11 9 8 8 6 6 6 5 4 4 4 3 4 4 3 3 2 2 3 2 3 2 2 3 3 3 3 3 3 4 4 4 4 4 5 5 5 6 6 6 6 6 6 6 6 6 7 7 7 7 7 8 8 8 8 8 8 8 9 9 9 9 10 14 14 15 16 19 20 20 21 21 22 22 22 22 23
15 15 12 11 12 14 13 12 11 9 8 8 6 6 6 5 5 4 4 3 4 3 3 2 2 3 2 2 2 2 2 2 2 2 3 3 3 4 4 4 4 4 5 5 6 6 6 6 7 6 7 6 6 6 6 7 7 7 8 9 8 8 8 8 9 9 9 9 9 10 10 10 13 14 14 17 19 20 21 21 21 21 22 22 22
12 14 13 12 13 13 12 12 10 10 9 9 7 6 6 5 5 4 4 3 3 3 3 3 2 3 2 2 2 2 1 2 2 3 3 2 3 3 3 4 3 4 5 6 7 7 6 6 6 6 6 6 7 7 6 7 8 8 8 8 8 9 9 9 9 9 10 10 10 10 10 10 11 13 15 15 17 19 19 20 20 21 21 22 22
12 11 13 14 11 9 8 8 10 10 10 8 8 7 6 6 5 4 4 5 4 3 3 3 3 3 3 2 2 2 2 2 3 3 3 3 3 3 3 4 3 4 5 5 5 6 7 7 7 6 6 6 6 7 7 7 7 7 8 8 8 9 8 9 10 10 10 10 10 10 10 10 10 10 9 12 14 15 18 19 18 19 19 20 21
11 12 15 15 13 11 9 8 10 10 10 9 8 7 7 6 6 5 5 5 4 4 4 3 3 3 3 3 2 2 2 3 3 2 2 2 3 3 3 3 3 5 5 5 6 6 6 6 6 7 7 7 7 7 7 8 8 9 8 8 9 9 9 10 10 10 10 11 10 10 10 10 10 9 9 9 9 12 12 14 17 18 19 20 21
16 14 13 14 14 13 11 10 11 11 10 8 8 7 7 6 6 6 5 5 5 4 4 4 3 3 2 2 3 2 2 3 2 1 1 2 3 3 3 4 4 4 5 5 6 6 6 6 6 7 7 8 8 8 7 8 9 9 9 9 9 9 10 10 10 10 10 10 10 10 10 10 10 10 10 10 10 10 14 15 17 18 18 19 19
15 15 15 15 14 13 13 12 14 12 11 10 9 8 7 7 6 6 5 6 4 4 4 4 3 3 2 2 3 2 2 2 1 0 1 2 2 3 4 4 4 5 5 6 6 6 6 6 7 6 7 8 8 10 9 8 9 9 10 10 10 10 10 10 10 10 9 10 11 11 11 10 9 10 10 10 9 9 11 13 13 15 16 18 20
15 15 15 16 15 13 13 11 11 11 10 10 9 8 7 7 6 6 6 6 5 4 4 4 3 3 3 2 3 1 2 2 1 0 2 2 3 3 4 4 4 5 6 6 6 6 6 7 7 7 7 7 8 9 10 9 9 9 10 11 11 10 10 11 11 10 11 11 11 11 10 9 9 9 10 10 10 10 9 11 14 15 16 17 20
13 15 15 15 13 12 12 12 12 12 10 10 10 8 8 7 6 6 6 5 4 4 3 4 3 3 3 3 3 2 3 2 1 1 2 2 3 4 4 4 4 5 6 6 6 7 7 6 7 8 7 7 8 9 9 9 9 10 10 12 12 12 11 11 11 11 11 12 10 9 8 10 10 10 10 10 9 9 10 9 9 8 9 12 14
14 14 16 15 14 13 12 11 12 12 10 10 9 8 7 7 7 6 6 5 5 5 4 4 4 4 4 4 4 3 2 1 1 1 2 3 3 3 4 4 5 5 6 6 6 6 7 8 9 8 9 8 8 8 8 9 10 12 13 12 10 11 13 12 12 12 12 10 9 9 9 9 9 9 9 9 9 9 10 9 9 9 9 10 13
14 16 16 16 15 14 14 14 12 12 10 10 9 9 9 8 7 8 7 7 6 6 5 5 5 4 5 4 4 3 3 2 1 2 2 2 3 4 4 5 5 5 5 6 7 8 8 8 8 7 8 9 8 7 7 8 10 11 8 10 11 13 14 13 14 14 11 9 8 8 8 8 8 8 8 8 9 10 9 10 10 9 9 8 9
14 16 16 16 15 15 15 13 12 12 11 11 10 9 9 8 8 8 7 7 7 6 6 6 5 4 4 5 4 3 3 2 2 2 2 3 3 4 5 5 5 5 5 6 8 9 9 8 7 7 7 8 8 7 7 7 7 8 13 13 8 7 7 9 12 10 8 7 7 8 8 8 9 9 9 10 10 10 10 10 10 10 9 9 9
15 16 15 15 15 14 13 13 12 12 11 11 10 9 8 7 7 7 7 6 4 4 4 5 4 4 5 5 4 4 3 3 3 3 2 3 4 5 5 5 5 5 5 6 7 8 8 8 8 8 8 7 8 7 6 4 7 8 10 11 11 14 4 5 3 0 4 6 8 11 13 12 13 11 10 10 9 9 9 9 10 10 9 9 9
12 12 14 15 12 13 14 13 12 12 11 10 9 9 7 7 5 6 4 4 5 4 3 3 4 4 5 5 4 4 4 3 3 3 3 4 4 5 5 5 5 5 5 6 7 8 8 8 8 8 8 9 6 6 5 5 5 7 8 5 11 8 13 3 9 9 8 13 14 13 9 9 9 8 9 11 11 11 10 10 11 11 11 12 11
12 13 14 14 10 14 14 14 12 12 10 10 10 9 9 8 6 6 4 3 2 4 4 5 5 5 4 5 4 5 4 3 3 3 3 4 5 5 5 5 5 5 5 6 7 8 8 8 8 8 8 8 9 6 6 5 6 5 5 8 7 6 7 11 14 15 6 5 4 7 9 12 13 11 10 11 11 10 10 11 11 11 12 11 11
13 13 12 13 11 13 14 14 11 11 11 12 11 9 8 8 8 7 7 6 6 6 7 7 6 6 5 4 4 3 3 2 3 3 4 4 5 5 6 6 6 5 5 6 7 8 9 9 8 7 9 9 8 8 7 5 5 6 7 8 7 8 13 13 9 12 7 8 13 8 9 8 9 11 11 11 11 11 10 12 13 13 13 12 12
13 11 11 12 12 13 13 13 12 11 10 12 12 9 9 8 10 9 7 8 7 6 5 4 4 4 3 3 2 2 3 3 3 4 4 5 5 6 6 6 6 6 6 6 7 9 8 8 7 7 8 7 7 8 8 7 6 6 7 9 10 10 11 10 10 11 17 9 5 9 10 9 10 11 12 11 10 10 11 11 12 12 12 12 12
13 12 12 12 14 15 14 14 10 11 10 11 12 10 10 9 9 8 7 7 6 6 6 5 4 3 3 3 2 2 3 4 4 5 5 6 5 6 6 5 6 6 6 7 8 8 8 7 8 8 8 7 8 8 8 6 6 7 6 8 9 10 11 12 13 11 13 17 19 5 8 9 10 9 10 11 12 12 12 10 10 11 10 11 12
13 13 13 13 12 14 13 12 11 11 10 13 12 11 9 9 9 8 7 5 5 4 4 4 4 4 3 3 3 3 3 4 5 5 5 6 5 5 5 6 6 6 6 7 8 9 10 9 9 8 8 8 7 7 8 7 7 8 7 8 8 9 10 10 11 10 11 13 20 16 11 7 10 12 10 11 10 10 10 12 12 12 12 13 13
12 11 12 12 13 13 13 14 12 10 10 12 12 12 11 9 9 9 9 7 6 5 5 5 5 4 4 4 4 4 4 5 5 6 5 6 5 5 5 6 6 7 7 8 9 9 9 9 9 9 9 9 8 8 8 8 7 8 8 8 8 9 10 9 10 10 12 12 15 20 17 14 15 11 7 10 13 13 13 12 13 13 12 10 10
11 13 12 13 13 13 14 15 14 11 12 12 13 12 11 10 9 9 10 9 9 7 6 6 5 5 5 5 5 4 4 4 4 4 5 5 5 5 5 6 6 6 7 8 9 8 8 8 8 9 10 10 9 9 10 9 9 9 9 9 9 9 10 10 10 9 11 11 12 17 18 17 16 18 9 8 11 13 12 12 12 11 11 12 12
Wind_Direction
75 66 46 49 356 24 30 33 39 44 50 52 54 56 61 65 65 73 71 72 75 73 75 71 71 68 63 59 55 52 55 56 57 56 54 54 49 55 52 34 14 358 358 344 347 346 340 337 346 336 332 349 347 356 352 355 350 348 346 345 347 345 343 343 342 341 340 344 343 341 337 327 317 302 293 282 279 285 273 265 254 266 259 239 249
87 69 60 47 17 40 38 39 41 45 46 51 53 53 56 60 62 63 68 69 68 72 72 71 70 72 68 65 61 61 59 56 59 64 62 58 57 54 49 38 27 13 3 350 350 356 346 347 345 328 338 342 353 335 343 334 343 337 337 340 337 339 339 338 338 333 334 333 337 338 327 310 299 288 281 282 282 282 286 251 245 263 268 259 238
71 74 83 65 49 36 45 48 48 50 49 49 52 54 59 62 61 58 62 67 64 64 64 63 62 62 62 61 58 57 57 58 58 58 61 61 55 50 46 38 29 22 6 354 350 2 1 355 346 359 352 343 339 333 321 323 319 327 322 325 330 330 331 332 330 330 327 328 328 328 307 284 261 263 266 270 271 272 271 265 216 247 275 293 315
76 70 60 116 69 39 49 51 51 53 57 57 59 59 59 58 54 56 58 60 59 56 56 54 52 54 54 54 53 51 50 51 51 53 53 56 53 47 45 43 39 33 13 5 0 4 2 354 352 8 7 353 332 310 305 319 313 309 313 319 324 327 327 323 324 321 321 323 320 319 299 295 268 215 244 267 266 266 267 264 221 231 265 283 292
90 73 68 51 58 48 44 53 52 53 56 59 59 61 63 62 59 57 57 57 56 56 55 52 49 48 48 47 48 48 47 45 43 43 43 46 47 43 38 37 35 31 21 22 19 8 6 360 2 1 9 5 342 332 321 311 306 307 312 313 319 324 323 324 318 318 314 312 311 302 288 280 283 189 201 241 259 268 267 272 231 235 259 267 272
76 73 65 66 60 50 43 53 56 58 59 59 61 59 62 60 60 58 60 61 60 60 59 58 56 53 50 50 51 47 47 47 45 44 43 41 42 41 35 32 31 25 23 20 19 21 13 12 9 4 2 5 0 356 351 339 322 319 305 305 308 316 319 318 320 314 312 311 290 273 272 278 294 349 158 275 296 287 266 262 226 241 248 249 265
72 55 58 63 67 46 46 53 60 61 62 63 63 64 63 63 64 63 66 65 64 63 61 60 60 59 57 56 53 52 49 47 45 44 42 42 41 41 38 33 31 28 22 18 22 21 19 14 13 7 6 11 7 5 5 1 356 346 327 313 312 309 310 316 314 313 311 305 302 306 304 309 320 330 193 280 294 306 310 305 306 291 275 262 258
76 75 80 77 56 53 49 61 62 66 66 67 66 67 67 68 68 70 69 67 64 63 63 62 61 60 59 58 58 56 53 49 46 43 41 41 40 41 41 38 32 29 24 20 21 21 23 23 18 14 16 21 22 12 5 1 357 352 348 331 324 316 312 311 314 310 305 297 288 292 305 312 306 293 307 300 270 286 297 308 315 304 294 284 272
104 97 88 78 73 50 54 61 69 70 72 69 69 68 69 70 70 71 71 70 68 66 65 64 61 60 59 58 57 55 53 50 48 44 42 41 41 39 40 39 36 33 29 25 24 23 23 25 24 25 23 25 21 12 7 4 356 351 347 338 329 323 319 315 309 311 294 294 304 298 309 307 316 312 297 297 308 302 308 318 307 316 314 303 285
120 96 67 71 69 54 64 64 66 68 70 71 71 70 70 69 70 71 72 72 71 69 68 67 65 64 60 58 56 54 51 50 48 46 44 43 41 40 37 36 34 33 31 28 26 25 26 27 26 23 23 25 20 13 15 11 6 358 350 341 334 330 326 323 314 295 288 286 297 302 299 344 307 308 289 282 286 311 309 314 307 303 290 285 266
111 100 99 86 55 56 58 64 67 67 66 68 69 69 68 67 68 69 70 71 71 70 68 67 67 66 65 63 60 58 55 51 48 46 45 43 41 40 38 34 33 31 30 27 25 24 24 26 24 23 24 22 20 15 14 11 7 9 7 1 352 341 335 324 310 295 297 304 301 302 302 302 280 262 39 20 339 305 304 299 290 288 281 278 274
113 108 93 88 68 45 60 58 62 66 69 68 67 66 65 66 66 66 67 68 68 69 68 67 67 66 66 64 63 62 60 56 53 49 46 44 42 41 37 35 32 31 29 27 23 21 23 22 22 22 21 19 17 15 14 11 10 11 10 6 5 358 356 346 317 297 296 291 293 299 296 296 297 308 327 314 308 299 294 290 290 297 293 282 278
109 111 107 103 83 48 51 60 62 67 69 69 70 69 68 67 66 67 66 65 65 65 65 66 65 64 63 62 62 61 60 59 57 53 48 46 43 41 37 34 31 30 28 26 23 20 19 19 19 19 18 16 15 12 10 9 8 8 8 5 2 359 357 333 306 296 289 289 288 292 294 292 287 287 318 309 308 307 302 298 295 298 297 292 282
133 119 107 98 88 67 52 55 62 66 66 69 71 72 71 70 70 69 68 67 66 65 65 64 63 62 61 60 59 58 57 56 56 54 51 47 45 41 39 35 33 30 27 25 22 19 16 14 14 13 12 9 8 5 6 4 4 3 4 4 1 357 355 331 323 302 290 283 284 285 286 288 281 339 340 320 310 306 303 299 297 294 294 294 290
124 107 111 115 117 99 71 56 60 62 65 66 66 68 69 69 68 67 67 67 65 65 66 64 63 62 61 60 59 58 56 55 53 52 49 46 42 40 38 36 34 31 28 26 22 18 14 10 8 8 6 1 358 357 355 354 356 356 357 356 355 353 350 337 323 304 296 291 282 276 271 271 281 325 321 306 298 298 300 301 300 296 294 293 289
121 123 112 111 122 128 117 82 67 62 64 63 64 68 71 72 71 70 69 68 67 68 66 66 65 63 63 60 57 54 52 51 48 47 44 41 38 34 32 32 29 27 26 23 22 20 16 12 8 3 359 355 351 349 347 343 341 345 344 346 344 340 336 327 309 300 293 289 287 285 278 275 281 280 288 294 298 299 299 300 301 301 298 296 294
108 112 116 114 119 117 111 100 93 88 69 63 62 66 69 71 71 70 68 67 68 67 67 67 66 66 62 61 57 53 50 47 44 41 38 34 32 29 25 24 24 23 22 20 18 16 13 11 6 1 357 352 345 342 339 336 335 337 339 335 335 326 318 308 292 286 280 281 283 285 286 286 287 312 294 295 297 297 298 300 300 300 300 297 296
129 137 136 136 133 130 119 132 148 136 117 97 67 55 65 68 69 66 64 64 65 65 64 66 68 69 67 68 68 67 59 53 49 44 40 35 28 25 20 20 18 15 13 11 10 10 8 5 2 357 353 346 339 332 330 327 327 332 331 331 326 320 306 300 278 270 266 259 268 269 274 267 277 303 300 298 300 300 300 299 299 299 297 296 296
158 166 148 158 148 150 145 141 146 137 139 113 106 73 59 68 69 68 66 68 70 67 66 63 64 65 66 69 86 88 82 65 60 56 49 45 32 24 18 18 16 13 9 5 3 2 1 358 356 353 350 344 337 331 323 318 317 319 321 320 315 305 300 286 270 280 303 302 289 285 281 304 349 299 299 294 294 299 300 299 299 297 296 293 291
173 176 168 167 167 163 165 154 152 147 126 110 105 100 76 71 68 67 66 64 60 65 63 65 62 50 62 69 39 116 96 85 59 54 48 46 43 24 15 16 15 12 6 360 359 357 355 353 350 348 345 343 337 329 318 308 312 312 307 309 300 295 283 266 291 304 291 287 291 288 286 331 335 316 298 289 289 293 295 295 294 294 293 292 291
177 187 183 175 174 177 174 161 151 141 126 118 106 99 94 133 101 88 79 59 50 48 41 55 87 62 22 23 202 45 56 43 42 22 26 26 49 18 8 7 9 6 1 357 354 351 350 346 344 343 340 336 329 316 299 323 325 313 298 285 287 286 281 317 308 301 299 290 287 284 300 349 322 309 295 293 289 287 289 292 293 292 291 290 290
183 186 188 179 179 179 177 167 152 147 137 128 126 132 136 131 99 104 75 77 48 33 49 26 27 23 350 28 40 41 32 45 32 19 8 11 26 14 0 2 3 4 358 353 351 351 349 343 341 338 333 325 310 311 336 336 316 318 306 292 276 306 333 327 318 297 291 285 283 280 310 330 314 303 295 290 289 288 286 286 285 286 288 288 287
186 186 186 183 184 176 181 169 162 150 142 138 146 147 159 136 129 116 126 109 84 39 36 36 24 17 13 24 44 38 20 48 33 358 330 292 41 2 2 356 2 3 358 347 351 357 347 344 344 339 327 326 329 340 336 333 326 328 321 318 334 332 328 314 301 294 293 294 293 304 315 314 303 294 290 287 285 287 286 283 282 283 283 284 284
189 187 178 182 183 177 181 166 160 159 158 154 162 164 164 163 164 165 153 153 134 113 78 31 32 19 7 28 39 31 11 36 92 204 299 8 19 9 5 352 7 5 358 343 352 357 343 348 347 343 337 352 342 338 336 334 331 329 328 328 329 329 320 313 306 303 298 299 292 295 305 304 297 292 291 292 290 289 289 287 284 281 282 282 280
189 180 176 181 182 179 170 167 167 166 173 158 172 170 169 173 163 172 159 153 161 143 108 76 49 16 10 40 37 33 26 37 24 15 13 12 11 7 4 5 4 358 357 355 355 349 346 346 346 346 345 344 341 335 333 328 329 326 326 326 324 320 317 311 308 305 302 298 296 302 311 310 302 296 291 290 289 288 288 288 286 281 278 279 278
181 187 183 176 182 178 174 167 171 172 174 172 179 146 173 177 170 166 163 157 150 138 125 105 92 33 33 1 64 56 36 46 29 23 14 14 14 7 0 3 357 357 358 354 357 349 346 349 346 345 341 335 330 327 325 320 319 322 315 319 315 313 314 312 305 302 300 297 297 305 306 303 296 290 288 287 287 286 285 284 285 289 286 280 280
186 190 179 178 178 178 175 168 174 172 178 178 165 165 188 176 170 163 174 159 158 155 118 120 76 53 349 44 33 46 52 41 33 27 20 15 12 4 358 358 359 356 357 351 353 347 345 344 347 342 340 335 332 329 320 322 319 318 313 309 310 309 306 305 303 300 300 296 291 292 288 287 288 288 287 285 285 285 285 283 281 281 282 281 278
185 186 181 175 177 177 174 172 175 173 173 178 181 177 178 171 156 132 202 105 153 138 127 90 127 110 49 35 21 62 51 55 33 30 20 20 9 2 355 358 358 355 353 347 350 346 341 342 338 338 336 334 332 328 327 324 321 315 315 313 311 306 302 301 301 296 293 292 290 289 287 283 284 288 288 286 284 283 283 283 282 278 277 278 280
187 187 180 179 176 175 175 181 175 177 175 177 189 178 168 172 161 172 161 148 175 143 117 148 155 114 87 57 34 59 57 57 44 28 13 21 2 6 354 4 350 355 351 346 350 343 337 336 334 335 332 328 326 326 327 320 317 318 313 309 305 304 301 297 296 295 290 289 290 287 289 287 282 284 284 284 284 283 283 282 281 281 278 276 276
194 185 179 181 173 174 179 183 179 179 174 177 184 177 169 169 171 175 138 173 148 124 153 155 139 140 103 72 57 50 57 43 44 14 16 12 359 1 357 358 348 353 352 343 345 337 330 323 324 322 322 322 320 316 316 313 312 310 308 306 303 301 298 296 295 295 293 289 286 285 280 276 274 279 283 283 283 283 282 281 280 279 279 278 276
189 189 183 179 172 174 179 183 178 176 169 178 179 178 171 171 170 161 163 171 144 155 163 146 137 110 93 74 78 52 55 62 37 23 10 4 359 358 351 350 344 348 347 336 336 327 317 310 314 312 312 311 306 309 309 308 307 304 304 303 301 298 297 296 293 292 291 288 288 288 286 280 274 267 270 277 279 280 280 281 280 280 279 278 277
190 189 184 176 170 177 177 180 177 172 170 178 172 172 172 166 162 170 166 155 159 167 151 149 142 113 93 86 64 59 55 84 66 40 9 357 357 353 340 346 336 338 340 333 324 314 303 297 297 301 298 294 301 301 302 302 303 303 305 302 304 302 298 298 294 291 289 288 284 286 286 282 277 270 266 270 276 279 280 281 282 281 280 279 277
195 188 181 176 174 175 176 177 175 166 179 176 167 172 168 160 169 175 156 156 175 166 160 148 135 114 114 101 76 74 77 56 53 41 10 352 353 339 335 328 321 337 329 320 313 305 303 303 305 304 299 305 299 301 303 301 304 304 304 304 306 302 300 300 297 293 289 288 287 285 283 283 282 279 270 263 265 273 278 281 282 283 282 282 281
187 184 179 178 171 170 167 169 174 170 180 175 171 170 167 169 170 171 156 177 174 165 153 154 140 140 143 140 135 92 58 66 40 33 12 347 335 318 319 313 318 336 322 314 314 314 305 304 309 311 311 307 309 310 310 304 303 304 304 305 302 301 302 296 294 291 288 284 285 282 282 283 285 285 285 279 273 269 273 277 280 282 282 283 282
180 182 182 176 168 166 164 164 171 169 177 177 173 170 165 167 170 170 168 188 166 168 163 153 158 166 166 151 138 106 82 61 45 25 355 331 313 308 305 304 334 329 317 316 312 305 299 306 317 315 312 311 312 311 309 306 304 304 301 302 299 301 298 294 291 290 288 287 283 281 280 281 282 285 286 289 283 276 270 274 280 281 283 283 285
187 180 174 171 170 163 161 157 166 169 172 170 169 162 163 166 174 171 163 179 168 170 162 160 164 169 171 144 130 125 74 70 59 32 308 316 300 297 299 320 330 320 318 311 301 300 307 311 309 309 313 313 314 311 310 305 305 305 303 298 296 295 294 290 288 284 283 284 282 281 281 280 282 284 290 289 286 282 273 266 268 271 273 276 279
184 176 172 172 170 163 164 163 171 168 172 168 168 166 169 172 169 173 163 171 172 167 161 157 168 178 169 156 132 122 115 99 79 288 268 279 290 296 304 320 328 320 309 305 298 299 310 309 304 307 308 308 311 308 309 308 307 303 301 294 290 288 284 282 280 280 282 276 277 278 279 277 280 278 279 278 280 282 281 274 265 263 263 264 269
185 180 173 172 172 166 168 168 169 170 169 169 168 168 168 166 169 166 169 170 170 161 157 162 181 178 160 161 126 152 138 132 175 261 288 296 293 291 302 313 311 305 300 297 297 301 295 294 298 305 309 307 305 308 306 303 301 298 292 291 287 283 278 275 273 272 273 273 268 269 274 281 281 281 277 276 280 283 286 283 277 269 259 253 255
184 180 173 172 167 161 166 167 169 171 169 167 167 167 165 169 168 162 165 167 166 167 158 176 182 172 176 130 147 180 157 173 191 254 288 307 302 306 303 305 300 290 289 293 297 298 291 290 298 300 297 293 294 293 291 294 294 292 288 284 281 273 270 267 269 269 264 264 269 271 272 274 272 271 274 275 275 280 282 284 285 289 285 272 266
182 179 174 170 167 162 165 166 173 170 167 166 165 169 169 173 169 168 167 180 173 165 178 189 177 180 155 163 161 189 168 175 202 300 292 289 300 304 304 296 284 276 280 288 294 295 301 303 296 297 296 289 282 281 289 297 296 290 283 276 271 275 270 267 267 263 262 264 271 276 274 271 273 273 274 277 278 279 280 280 281 282 282 279 275
181 178 176 174 173 165 165 170 172 171 169 169 173 174 177 178 177 182 179 174 176 170 175 184 177 179 155 172 172 187 174 184 222 246 270 283 283 282 280 273 265 269 275 279 285 290 292 290 290 287 288 288 285 288 294 301 299 293 287 288 285 271 262 262 260 255 258 269 265 268 268 272 275 277 282 285 284 281 282 282 280 279 279 280 280
182 180 179 176 173 169 171 169 172 175 180 177 174 183 185 185 178 179 177 165 166 173 181 178 178 156 161 178 185 179 184 195 215 241 259 267 273 278 274 273 273 272 277 282 282 281 281 278 279 285 276 283 287 292 293 300 297 317 322 316 287 267 273 269 262 271 267 254 262 269 273 276 279 286 287 286 283 280 283 283 281 279 277 279 279
179 181 179 173 174 173 174 172 174 175 180 178 176 184 181 180 183 173 173 153 157 161 152 140 149 163 175 180 186 182 188 200 209 218 242 255 261 265 265 272 276 276 280 279 280 282 281 279 277 276 290 282 282 278 273 276 300 311 297 288 317 328 310 267 236 335 348 326 304 287 284 283 283 282 282 280 281 283 281 278 278 280 288 291 292
177 180 179 179 175 179 177 176 174 175 178 179 179 175 161 127 101 120 107 129 156 141 151 164 177 181 193 189 193 190 191 201 200 216 229 235 245 257 270 272 275 273 274 280 280 279 279 275 271 273 280 286 282 289 285 286 285 317 322 333 305 301 309 327 338 293 287 273 265 269 271 272 274 280 289 283 284 284 281 284 286 285 283 282 279
180 181 182 179 178 180 178 175 171 175 177 170 171 154 131 128 118 106 115 109 113 168 184 194 189 188 191 189 193 183 187 193 205 221 235 245 250 253 260 271 274 274 275 275 274 273 273 273 276 273 267 276 288 287 286 274 268 253 270 312 318 300 284 309 335 299 238 268 282 298 283 278 276 274 269 272 274 274 282 283 284 285 284 278 279
186 186 180 178 168 175 177 173 171 174 175 167 164 151 155 160 161 165 175 187 188 186 195 192 182 185 194 181 169 166 178 202 214 224 233 244 247 247 250 260 267 269 265 268 274 276 272 268 265 267 272 269 277 289 287 277 264 257 246 239 240 271 307 311 323 305 311 275 273 259 272 268 271 273 270 270 272 277 278 281 280 278 279 283 285
187 172 173 175 171 176 178 175 173 173 171 166 165 161 165 176 180 185 189 188 192 189 185 168 164 163 160 164 175 181 193 206 215 219 231 234 242 248 251 254 260 265 268 270 269 270 270 269 269 262 266 277 277 280 286 296 291 262 249 246 249 260 267 289 295 310 305 301 222 274 274 264 266 267 269 268 271 275 276 277 278 280 282 280 278
178 170 173 178 174 176 175 173 171 171 163 164 167 170 172 179 179 186 189 188 189 171 160 161 167 162 161 174 196 207 200 203 216 219 223 229 239 247 250 254 257 262 264 265 266 269 271 270 265 266 266 263 265 269 285 288 288 291 283 275 271 265 259 260 262 272 288 301 300 257 255 267 269 262 271 276 277 272 274 273 278 282 285 284 288
176 174 175 178 173 177 171 170 166 166 161 165 167 173 177 176 175 176 180 184 178 177 159 164 168 172 181 187 202 217 221 223 221 227 224 232 238 248 254 257 259 264 262 266 264 264 268 271 272 269 267 269 270 276 279 279 282 282 291 280 276 269 269 263 261 259 263 290 290 291 284 282 277 274 273 274 271 275 281 282 281 280 279 282 279
177 171 171 170 172 175 172 173 168 167 162 165 167 172 174 172 175 180 180 180 177 179 184 178 181 181 188 195 203 209 213 212 211 212 220 225 236 245 251 256 261 262 263 264 266 268 269 269 266 267 268 270 270 269 267 274 275 276 272 278 277 277 273 269 261 259 262 251 270 296 299 298 292 280 280 284 282 278 276 272 275 275 274 273 280
171 170 170 171 175 175 175 176 176 169 164 168 168 170 173 175 176 179 180 180 177 180 180 188 183 183 197 199 205 213 210 212 211 218 217 226 238 245 252 260 266 270 267 268 265 267 270 274 275 272 268 266 268 268 270 268 268 266 266 263 264 265 266 270 273 272 274 276 281 279 289 295 292 290 275 263 274 275 270 267 267 272 276 275 273